Inquirer Daily News

Weather

Get conditions and forecasts for any City, State, ZIP code or Country:  
Northeast Philadelphia, PA
on Thursday, December 13, 2012

Thursday
Previous Day Next Day
Daily Summary
 ActualAverage (KTTN)Record (KTTN)
Temperature
Mean Temperature °F 36°F  
Max Temperature 46°F 44°F 65°F (1990)
Min Temperature 28°F 28°F 6°F (1988)
Degree Days
Heating Degree Days 28 29  
Month to date heating degree days 350  
Since 1 July heating degree days 1326  
Cooling Degree Days 0 0  
Month to date cooling degree days 0  
Year to date cooling degree days 965  
Moisture
Dew Point 23°F   
Average Humidity 59    
Maximum Humidity 82    
Minimum Humidity 37    
Precipitation
Precipitation 0.00 in 0.14 in 2.30 in (1909)
Month to date precipitation 1.79  
Year to date precipitation 44.53  
Wind
Wind Speed 5 mph   
Max Wind Speed 10 mph   
Max Gust Speed mph   
Visibility 10 miles   
Events     

Key: T is trace of precipitation, MM is missing value
Source: NWS Daily Summary
Time(EST)TemperatureDew PointHumidity Pressure Visibility Wind DirectionWind SpeedGust SpeedPrecipitationEvents Conditions
12:54 AM 35.1°F 25.0°F 67% 30.42 in 10.0 miles NNE 6.9 mph - N/A   Clear
1:54 AM 34.0°F 24.1°F 67% 30.42 in 10.0 miles North 6.9 mph - N/A   Clear
2:54 AM 35.1°F 24.1°F 64% 30.45 in 10.0 miles North 5.8 mph - N/A   Clear
3:54 AM 34.0°F 24.1°F 67% 30.44 in 10.0 miles NNE 3.5 mph - N/A   Clear
4:54 AM 33.1°F 24.1°F 70% 30.42 in 10.0 miles NNE 6.9 mph - N/A   Clear
5:54 AM 32.0°F 24.1°F 73% 30.46 in 10.0 miles Calm Calm - N/A   Clear
6:54 AM 30.9°F 24.1°F 76% 30.47 in 10.0 miles North 5.8 mph - N/A   Clear
7:54 AM 33.1°F 24.1°F 70% 30.47 in 10.0 miles NNE 5.8 mph - N/A   Clear
8:54 AM 37.9°F 24.1°F 57% 30.46 in 10.0 miles NNE 10.4 mph - N/A   Clear
9:54 AM 42.1°F 25.0°F 51% 30.48 in 10.0 miles ENE 5.8 mph - N/A   Clear
10:54 AM 44.1°F 23.0°F 43% 30.48 in 10.0 miles ENE 9.2 mph - N/A   Clear
10:55 AM 44.6°F 26.6°F 49% 30.47 in 10.0 miles NE 5.8 mph - N/A   Clear
11:54 AM 46.0°F 21.9°F 39% 30.45 in 10.0 miles NNE 6.9 mph - N/A   Clear
12:54 PM 46.0°F 21.9°F 39% 30.43 in 10.0 miles Calm Calm - N/A   Clear
1:54 PM 46.0°F 21.0°F 37% 30.41 in 10.0 miles NNE 5.8 mph - N/A   Clear
2:54 PM 46.0°F 21.0°F 37% 30.41 in 10.0 miles ENE 3.5 mph - N/A   Clear
3:54 PM 45.0°F 19.9°F 37% 30.40 in 10.0 miles Calm Calm - N/A   Clear
4:54 PM 42.1°F 19.9°F 41% 30.39 in 10.0 miles Calm Calm - N/A   Clear
7:54 PM 35.6°F 24.8°F 65% 30.40 in 10.0 miles Calm Calm - N/A   Clear
8:54 PM 33.1°F 24.1°F 70% 30.37 in 10.0 miles Calm Calm - N/A   Clear
9:54 PM 30.9°F 23.0°F 72% 30.37 in 10.0 miles Calm Calm - N/A   Clear
10:54 PM 28.9°F 21.9°F 75% 30.36 in 10.0 miles Calm Calm - N/A   Clear
11:54 PM 28.9°F 24.1°F 82% 30.36 in 10.0 miles Calm Calm - N/A   Clear
Astronomy
Sunrise:07:13 AM (EST) Moon Rise:07:19 AM (EST)12/13
Sunset:04:35 PM (EST) Moon Set:05:14 PM (EST)12/13
Moon Phase
Dec. 13 Dec. 20 Dec. 28 Jan. 04 Jan. 11

Copyright © 2014 The Weather Underground, Inc.